User: anonymous   Login
Location: Cisewo
(53.3833°N, 14.9000°E)
Time: 15:48:53
(UTC+00:00)
Language:

CUBEBUG 2 - Orbit

View from above orbital plane
View from above orbital plane
View from above satellite
View from above satellite

Ground track
Ground track

The orbit data is extracted from the following two-line orbital elements,

1 39440U 13066AA  21267.88391218  .00000509  00000-0  77166-4 0  9999
2 39440  97.6875 232.3790 0078198 273.1533  86.0732 14.76325371421098
Epoch (UTC): 24 September 2021 21:12:50
Eccentricity: 0.0078198
inclination: 97.6875°
perigee height: 586 km
apogee height: 696 km
right ascension of ascending node: 232.3790°
argument of perigee: 273.1533°
revolutions per day: 14.76325371
mean anomaly at epoch: 86.0732°
orbit number at epoch: 42109

The dashed part of the orbit path shows where the satellite is in the earth's shadow,  

DLR